SHT7J EGLL-EGPH

Flight info

Callsign SHT7J
Flight time 0h 48m
Altitude 26000
Route ULTIB T420 TNT UN57 POL UN601 RIBEL DCT INPIP
Aircraft A320/M-SDE3FGHIRWY/LB1

Departure

Time 2026-05-04 20:00
Airport London Heathrow Airport (EGLL)

Arrival

Time 2026-05-04 20:48
Airport Edinburgh Airport (EGPH)
Time Latitude Longitude Altitude Speed Heading
2026-05-04 19:28 51.47421 -0.48956 87 ft 0 kts 180°
2026-05-04 19:52 51.47436 -0.48956 91 ft 4 kts 179°
2026-05-04 19:52 51.47456 -0.48957 89 ft 2 kts 166°
2026-05-04 19:52 51.47481 -0.48960 90 ft 4 kts 199°
2026-05-04 19:53 51.47504 -0.48945 90 ft 4 kts 156°
2026-05-04 19:53 51.47509 -0.48952 90 ft 1 kts 120°
2026-05-04 19:53 51.47510 -0.48953 89 ft 0 kts 120°
2026-05-04 19:56 51.47489 -0.48886 89 ft 12 kts 104°
2026-05-04 19:56 51.47486 -0.48724 89 ft 13 kts 88°
2026-05-04 19:57 51.47487 -0.48553 88 ft 17 kts 90°
2026-05-04 19:57 51.47397 -0.48477 87 ft 18 kts 180°
2026-05-04 19:57 51.47272 -0.48476 87 ft 18 kts 180°
2026-05-04 19:57 51.47134 -0.48474 87 ft 22 kts 179°
2026-05-04 19:58 51.46990 -0.48472 88 ft 16 kts 179°
2026-05-04 19:58 51.46868 -0.48472 88 ft 19 kts 180°
2026-05-04 19:58 51.46720 -0.48470 87 ft 23 kts 179°
2026-05-04 19:58 51.46549 -0.48468 89 ft 26 kts 179°
2026-05-04 19:59 51.46480 -0.48380 89 ft 11 kts 90°
2026-05-04 19:59 51.46479 -0.48071 87 ft 64 kts 89°
2026-05-04 19:59 51.46483 -0.46968 88 ft 130 kts 89°
2026-05-04 19:59 51.46476 -0.45356 483 ft 147 kts 88°
2026-05-04 20:00 51.46458 -0.43700 1234 ft 150 kts 88°
2026-05-04 20:00 51.46442 -0.42591 1733 ft 149 kts 88°
2026-05-04 20:00 51.46835 -0.40414 2313 ft 168 kts 51°
2026-05-04 20:00 51.47378 -0.39463 2551 ft 181 kts 48°
2026-05-04 20:01 51.48258 -0.37826 2845 ft 209 kts 49°
2026-05-04 20:01 51.49257 -0.35919 3405 ft 231 kts 50°
2026-05-04 20:01 51.50312 -0.33882 4288 ft 243 kts 49°
2026-05-04 20:01 51.51407 -0.31774 5306 ft 250 kts 49°
2026-05-04 20:02 51.52484 -0.29508 6283 ft 260 kts 61°
2026-05-04 20:02 51.53060 -0.26715 7136 ft 270 kts 73°
2026-05-04 20:02 51.53927 -0.24078 8141 ft 273 kts 46°
2026-05-04 20:02 51.55526 -0.22456 9090 ft 277 kts 14°
2026-05-04 20:03 51.57458 -0.22245 9965 ft 286 kts 355°
2026-05-04 20:03 51.59499 -0.22651 10445 ft 307 kts 348°
2026-05-04 20:03 51.61584 -0.23612 11177 ft 315 kts 335°
2026-05-04 20:03 51.63496 -0.25359 12045 ft 319 kts 325°
2026-05-04 20:04 51.65366 -0.27338 12933 ft 323 kts 327°
2026-05-04 20:04 51.67298 -0.29256 13708 ft 329 kts 329°
2026-05-04 20:04 51.69276 -0.31150 13972 ft 331 kts 329°
2026-05-04 20:04 51.71267 -0.33027 14220 ft 334 kts 329°
2026-05-04 20:05 51.73280 -0.34929 15031 ft 337 kts 329°
2026-05-04 20:05 51.75308 -0.36861 15773 ft 341 kts 328°
2026-05-04 20:05 51.77364 -0.38838 16512 ft 346 kts 328°
2026-05-04 20:05 51.79444 -0.40849 17218 ft 351 kts 328°
2026-05-04 20:06 51.81524 -0.42865 17946 ft 356 kts 328°
2026-05-04 20:06 51.83660 -0.44940 18647 ft 360 kts 328°
2026-05-04 20:06 51.85818 -0.47036 19326 ft 364 kts 327°
2026-05-04 20:06 51.87999 -0.49157 20010 ft 367 kts 327°
2026-05-04 20:07 51.90199 -0.51299 20696 ft 371 kts 327°
2026-05-04 20:07 51.92423 -0.53464 21336 ft 375 kts 327°
2026-05-04 20:07 51.94668 -0.55649 21963 ft 378 kts 327°
2026-05-04 20:07 51.96933 -0.57854 22587 ft 381 kts 327°
2026-05-04 20:08 51.99215 -0.60081 23229 ft 385 kts 326°
2026-05-04 20:08 52.01521 -0.62334 23829 ft 388 kts 326°
2026-05-04 20:08 52.03839 -0.64608 24353 ft 391 kts 326°
2026-05-04 20:08 52.06175 -0.66904 24903 ft 394 kts 326°
2026-05-04 20:09 52.08528 -0.69221 25437 ft 397 kts 326°
2026-05-04 20:09 52.10898 -0.71556 25898 ft 400 kts 326°
2026-05-04 20:09 52.13294 -0.73918 26034 ft 409 kts 326°
2026-05-04 20:09 52.15776 -0.76373 26056 ft 425 kts 326°
2026-05-04 20:10 52.18349 -0.78918 26058 ft 440 kts 326°
2026-05-04 20:10 52.21008 -0.81553 26060 ft 454 kts 326°
2026-05-04 20:10 52.23744 -0.84261 26057 ft 466 kts 326°
2026-05-04 20:10 52.26535 -0.87020 26057 ft 471 kts 326°
2026-05-04 20:11 52.29345 -0.89802 26057 ft 472 kts 326°
2026-05-04 20:11 52.32153 -0.92586 26056 ft 473 kts 326°
2026-05-04 20:11 52.34963 -0.95383 26056 ft 472 kts 326°
2026-05-04 20:11 52.37767 -0.98179 26058 ft 472 kts 326°
2026-05-04 20:12 52.40571 -1.00978 26057 ft 472 kts 326°
2026-05-04 20:12 52.43376 -1.03785 26050 ft 472 kts 326°
2026-05-04 20:12 52.46174 -1.06596 26048 ft 472 kts 326°
2026-05-04 20:12 52.48974 -1.09413 26044 ft 472 kts 326°
2026-05-04 20:13 52.51773 -1.12232 26038 ft 472 kts 326°
2026-05-04 20:13 52.54568 -1.15051 26031 ft 472 kts 326°
2026-05-04 20:13 52.57366 -1.17874 26028 ft 472 kts 326°
2026-05-04 20:13 52.60163 -1.20695 26026 ft 471 kts 326°
2026-05-04 20:14 52.62957 -1.23514 26020 ft 471 kts 326°
2026-05-04 20:14 52.65752 -1.26340 26018 ft 471 kts 326°
2026-05-04 20:14 52.68541 -1.29168 26014 ft 471 kts 326°
2026-05-04 20:14 52.71334 -1.32003 26021 ft 471 kts 326°
2026-05-04 20:15 52.74121 -1.34835 26047 ft 471 kts 326°
2026-05-04 20:15 52.76909 -1.37675 26039 ft 471 kts 326°
2026-05-04 20:15 52.79689 -1.40516 26033 ft 471 kts 326°
2026-05-04 20:15 52.82472 -1.43367 26039 ft 470 kts 326°
2026-05-04 20:16 52.85211 -1.46174 26051 ft 470 kts 327°
2026-05-04 20:16 52.87993 -1.49025 26033 ft 470 kts 327°
2026-05-04 20:16 52.90778 -1.51885 26044 ft 470 kts 327°
2026-05-04 20:16 52.93559 -1.54748 26040 ft 470 kts 327°
2026-05-04 20:17 52.96333 -1.57608 26040 ft 470 kts 327°
2026-05-04 20:17 52.99105 -1.60475 26036 ft 470 kts 327°
2026-05-04 20:17 53.01883 -1.63350 26040 ft 470 kts 327°
2026-05-04 20:17 53.04667 -1.66196 26030 ft 470 kts 330°
2026-05-04 20:18 53.07655 -1.68405 26031 ft 470 kts 339°
2026-05-04 20:18 53.10719 -1.70309 26036 ft 471 kts 340°
2026-05-04 20:18 53.13790 -1.72209 26031 ft 471 kts 340°
2026-05-04 20:18 53.16861 -1.74104 26039 ft 471 kts 340°
2026-05-04 20:19 53.19934 -1.75998 26041 ft 471 kts 340°
2026-05-04 20:19 53.23007 -1.77899 26044 ft 471 kts 340°
2026-05-04 20:19 53.26080 -1.79810 26068 ft 471 kts 340°
2026-05-04 20:19 53.29152 -1.81728 26066 ft 471 kts 340°
2026-05-04 20:20 53.32220 -1.83647 26067 ft 471 kts 340°
2026-05-04 20:20 53.35291 -1.85569 26068 ft 471 kts 340°
2026-05-04 20:20 53.38362 -1.87498 26068 ft 471 kts 340°
2026-05-04 20:20 53.41427 -1.89427 26070 ft 471 kts 340°
2026-05-04 20:21 53.44490 -1.91354 26070 ft 470 kts 340°
2026-05-04 20:21 53.47556 -1.93285 26067 ft 470 kts 340°
2026-05-04 20:21 53.53677 -1.97147 26068 ft 470 kts 340°
2026-05-04 20:22 53.56737 -1.99083 26066 ft 470 kts 340°
2026-05-04 20:22 53.59793 -2.01020 26066 ft 469 kts 340°
2026-05-04 20:22 53.62844 -2.02960 26064 ft 469 kts 340°
2026-05-04 20:22 53.65856 -2.04881 26062 ft 469 kts 340°
2026-05-04 20:23 53.68903 -2.06829 26061 ft 468 kts 340°
2026-05-04 20:23 53.71948 -2.08776 26059 ft 468 kts 340°
2026-05-04 20:23 53.75035 -2.10747 26060 ft 468 kts 340°
2026-05-04 20:23 53.78029 -2.12712 26057 ft 468 kts 339°
2026-05-04 20:24 53.81085 -2.14787 26060 ft 467 kts 339°
2026-05-04 20:24 53.84057 -2.16844 26058 ft 467 kts 338°
2026-05-04 20:24 53.87063 -2.18934 26059 ft 467 kts 338°
2026-05-04 20:24 53.90072 -2.21019 26059 ft 467 kts 338°
2026-05-04 20:25 53.93078 -2.23095 26058 ft 467 kts 338°
2026-05-04 20:25 53.96084 -2.25166 26057 ft 466 kts 338°
2026-05-04 20:25 53.99092 -2.27236 26056 ft 466 kts 338°
2026-05-04 20:25 54.02099 -2.29304 26056 ft 466 kts 338°
2026-05-04 20:26 54.05101 -2.31369 26056 ft 465 kts 338°
2026-05-04 20:26 54.08102 -2.33434 26057 ft 465 kts 338°
2026-05-04 20:26 54.11094 -2.35498 26058 ft 464 kts 338°
2026-05-04 20:26 54.14089 -2.37572 26061 ft 464 kts 338°
2026-05-04 20:27 54.17082 -2.39649 26061 ft 464 kts 338°
2026-05-04 20:27 54.20075 -2.41733 26060 ft 464 kts 338°
2026-05-04 20:27 54.23047 -2.43806 26054 ft 456 kts 338°
2026-05-04 20:27 54.25967 -2.45842 25880 ft 451 kts 337°
2026-05-04 20:28 54.28859 -2.47857 25688 ft 448 kts 337°
2026-05-04 20:28 54.31741 -2.49869 25483 ft 446 kts 337°
2026-05-04 20:28 54.34609 -2.51876 25286 ft 445 kts 337°
2026-05-04 20:28 54.37475 -2.53886 25091 ft 444 kts 337°
2026-05-04 20:29 54.40327 -2.55889 24899 ft 443 kts 337°
2026-05-04 20:29 54.43176 -2.57900 24709 ft 442 kts 337°
2026-05-04 20:29 54.46010 -2.59904 24526 ft 441 kts 337°
2026-05-04 20:29 54.48841 -2.61905 24330 ft 439 kts 337°
2026-05-04 20:30 54.51666 -2.63899 24142 ft 438 kts 337°
2026-05-04 20:30 54.54487 -2.65890 23904 ft 437 kts 337°
2026-05-04 20:30 54.57292 -2.67873 23629 ft 435 kts 337°
2026-05-04 20:30 54.60089 -2.69854 23296 ft 434 kts 336°
2026-05-04 20:31 54.62872 -2.71836 22968 ft 432 kts 336°
2026-05-04 20:31 54.65641 -2.73816 22643 ft 430 kts 336°
2026-05-04 20:31 54.68400 -2.75792 22322 ft 428 kts 336°
2026-05-04 20:31 54.71147 -2.77757 22011 ft 426 kts 336°
2026-05-04 20:32 54.73884 -2.79709 21688 ft 424 kts 336°
2026-05-04 20:32 54.76607 -2.81656 21378 ft 422 kts 336°
2026-05-04 20:32 54.79314 -2.83597 21065 ft 421 kts 336°
2026-05-04 20:32 54.82019 -2.85320 20757 ft 420 kts 344°
2026-05-04 20:33 54.84909 -2.86081 20382 ft 420 kts 352°
2026-05-04 20:33 54.87803 -2.86635 20010 ft 418 kts 352°
2026-05-04 20:33 54.90689 -2.87166 19640 ft 416 kts 352°
2026-05-04 20:33 54.93557 -2.87679 19278 ft 414 kts 352°
2026-05-04 20:34 54.96413 -2.88189 18918 ft 411 kts 352°
2026-05-04 20:34 54.99256 -2.88700 18562 ft 409 kts 352°
2026-05-04 20:34 55.02081 -2.89214 18197 ft 407 kts 352°
2026-05-04 20:34 55.04890 -2.89735 17790 ft 405 kts 352°
2026-05-04 20:35 55.07683 -2.90253 17387 ft 402 kts 352°
2026-05-04 20:35 55.10458 -2.90765 16983 ft 400 kts 352°
2026-05-04 20:35 55.13216 -2.91273 16546 ft 397 kts 352°
2026-05-04 20:35 55.15956 -2.91779 16112 ft 395 kts 352°
2026-05-04 20:36 55.18679 -2.92283 15679 ft 392 kts 352°
2026-05-04 20:36 55.21383 -2.92785 15260 ft 390 kts 351°
2026-05-04 20:36 55.24071 -2.93282 14848 ft 387 kts 351°
2026-05-04 20:36 55.26742 -2.93779 14434 ft 385 kts 351°
2026-05-04 20:37 55.29395 -2.94277 14031 ft 382 kts 351°
2026-05-04 20:37 55.32030 -2.94770 13598 ft 380 kts 351°
2026-05-04 20:37 55.34652 -2.95263 13148 ft 377 kts 351°
2026-05-04 20:37 55.37249 -2.95750 12699 ft 374 kts 351°
2026-05-04 20:38 55.39828 -2.96232 12255 ft 371 kts 351°
2026-05-04 20:38 55.42385 -2.96708 11824 ft 368 kts 351°
2026-05-04 20:38 55.44924 -2.97182 11398 ft 365 kts 351°
2026-05-04 20:38 55.47445 -2.97658 11000 ft 363 kts 351°
2026-05-04 20:39 55.49947 -2.98136 10609 ft 361 kts 351°
2026-05-04 20:39 55.52400 -2.98603 10225 ft 358 kts 351°
2026-05-04 20:39 55.54868 -2.99070 9827 ft 356 kts 351°
2026-05-04 20:39 55.57313 -2.99528 9402 ft 348 kts 351°
2026-05-04 20:40 55.59681 -2.99971 8984 ft 337 kts 351°
2026-05-04 20:40 55.61977 -3.00402 8594 ft 327 kts 351°
2026-05-04 20:40 55.64216 -3.00817 8216 ft 320 kts 352°
2026-05-04 20:40 55.66405 -3.01211 7827 ft 313 kts 352°
2026-05-04 20:41 55.68554 -3.01609 7451 ft 308 kts 352°
2026-05-04 20:41 55.70670 -3.02006 7082 ft 303 kts 352°
2026-05-04 20:41 55.72750 -3.02403 6699 ft 298 kts 352°
2026-05-04 20:41 55.74799 -3.02806 6323 ft 294 kts 352°
2026-05-04 20:42 55.76785 -3.03409 6032 ft 280 kts 346°
2026-05-04 20:42 55.78590 -3.04167 6016 ft 255 kts 345°
2026-05-04 20:42 55.80293 -3.04895 5879 ft 248 kts 345°
2026-05-04 20:42 55.81926 -3.05592 5514 ft 238 kts 344°
2026-05-04 20:43 55.83474 -3.06563 5027 ft 235 kts 336°
2026-05-04 20:43 55.84963 -3.07743 4740 ft 233 kts 335°
2026-05-04 20:43 55.86414 -3.08918 4451 ft 224 kts 334°
2026-05-04 20:43 55.87815 -3.10041 3993 ft 220 kts 334°
2026-05-04 20:44 55.89154 -3.11331 3685 ft 216 kts 326°
2026-05-04 20:44 55.90379 -3.12755 3376 ft 206 kts 324°
2026-05-04 20:44 55.91479 -3.14359 2903 ft 203 kts 316°
2026-05-04 20:44 55.92489 -3.16062 2455 ft 203 kts 315°
2026-05-04 20:45 55.93514 -3.17813 2251 ft 197 kts 312°
2026-05-04 20:45 55.94407 -3.19527 2125 ft 180 kts 310°
2026-05-04 20:45 55.95168 -3.21194 1805 ft 171 kts 305°
2026-05-04 20:45 55.95877 -3.22868 1507 ft 165 kts 304°
2026-05-04 20:46 55.96544 -3.24442 1423 ft 156 kts 304°
2026-05-04 20:46 55.97048 -3.26089 1399 ft 141 kts 290°
2026-05-04 20:46 55.97272 -3.27712 1175 ft 134 kts 277°
2026-05-04 20:46 55.97311 -3.29322 955 ft 129 kts 268°
2026-05-04 20:47 55.97107 -3.30878 659 ft 128 kts 250°
2026-05-04 20:47 55.96671 -3.32238 453 ft 125 kts 238°
2026-05-04 20:47 55.96220 -3.33574 328 ft 126 kts 242°
2026-05-04 20:47 55.95782 -3.34926 223 ft 125 kts 241°
2026-05-04 20:48 55.95334 -3.36246 112 ft 121 kts 241°
2026-05-04 20:48 55.94978 -3.37313 112 ft 76 kts 239°
2026-05-04 20:48 55.94791 -3.37864 111 ft 31 kts 239°
2026-05-04 20:48 55.94660 -3.38019 113 ft 20 kts 153°
2026-05-04 20:49 55.94590 -3.37943 115 ft 7 kts 137°
2026-05-04 20:49 55.94609 -3.37831 113 ft 14 kts 59°
2026-05-04 20:49 55.94665 -3.37669 115 ft 15 kts 59°
2026-05-04 20:49 55.94704 -3.37553 113 ft 18 kts 59°
2026-05-04 20:50 55.94775 -3.37343 112 ft 17 kts 59°
2026-05-04 20:50 55.94845 -3.37138 114 ft 22 kts 59°
2026-05-04 20:50 55.94922 -3.36911 114 ft 19 kts 59°
2026-05-04 20:50 55.94999 -3.36682 114 ft 24 kts 59°
2026-05-04 20:51 55.95070 -3.36473 112 ft 21 kts 59°
2026-05-04 20:51 55.95136 -3.36253 116 ft 16 kts 78°
2026-05-04 20:51 55.95108 -3.36074 115 ft 10 kts 110°
2026-05-04 20:51 55.95075 -3.35933 114 ft 14 kts 116°
2026-05-04 20:52 55.95009 -3.35838 114 ft 13 kts 195°
2026-05-04 20:52 55.94933 -3.35837 117 ft 11 kts 142°
2026-05-04 20:52 55.94877 -3.35842 116 ft 8 kts 209°
2026-05-04 20:52 55.94848 -3.35872 114 ft 4 kts 210°
2026-05-04 20:53 55.94843 -3.35877 114 ft 0 kts 209°